#timestamp,LO_Frequency,Hit,StdDev 
1501862415.1,286047000.6,N,2.6
1501862416.0,286047000.6,N,1.2
1501862435.8,286047001.2,N,1.3
1501862455.6,286046998.3,N,1.3
1501862475.5,286046998.7,N,1.2
1501862495.3,286046998.8,N,1.2
1501862515.1,286046996.8,N,1.3
1501862535.9,286046997.5,N,1.3
1501862555.8,286046997.8,N,1.2
1501862575.6,286046996.8,N,1.2
1501862595.5,286046999.3,N,1.2
1501862615.3,286046999.2,N,1.2
1501862635.1,286046999.0,N,1.2
1501862655.9,286046998.4,N,1.2
1501862675.7,286047001.0,N,1.3
1501862695.6,286046998.1,N,1.3
1501862715.4,286046998.4,N,1.3
1501862735.2,286047000.7,N,1.3
1501862755.1,286046998.1,N,1.2
1501862756.0,286046998.1,N,1.2
1501862775.8,286047001.0,N,1.2
1501862795.7,286047001.2,N,1.3
1501862815.5,286047000.4,N,1.3
1501862835.3,286047000.1,N,1.3
1501862855.2,286047000.9,N,1.3
1501862875.0,286047000.8,N,1.3
1501862875.9,286047000.8,N,1.4
1501862895.8,286046999.7,N,1.3
1501862915.6,286047000.0,N,1.3
1501862935.4,286047001.1,N,1.4
1501862955.3,286047002.3,N,1.4
1501862975.1,286046999.8,N,1.4
1501862995.8,286047000.3,N,1.4
1501863015.7,286047000.0,N,1.4
1501863035.5,286047000.2,N,1.4
1501863055.4,286047002.2,N,1.5
1501863075.2,286047002.5,N,1.4
1501863095.0,286047002.6,N,1.5
1501863095.9,286047002.6,N,1.5
1501863115.8,286047002.5,N,1.4
1501863135.6,286047002.6,N,1.4
1501863155.5,286047002.5,N,1.5
1501863175.3,286047002.5,N,1.5
1501863195.1,286047001.5,N,1.4
1501863215.9,286047002.8,N,1.4
1501863235.7,286046999.7,N,1.4
1501863255.6,286047000.1,N,1.3
1501863275.4,286046999.9,N,1.3
1501863295.2,286047000.3,N,1.2
1501863315.1,286047000.2,N,1.1
1501863316.0,286047000.2,N,1.1
1501863335.8,286047002.4,N,1.1
1501863355.6,286047000.1,N,1.1
1501863375.5,286047002.3,N,1.1
1501863395.3,286047002.7,N,1.2
1501863415.2,286046999.7,N,1.2
1501863435.9,286046999.8,N,1.2
1501863455.7,286047002.7,N,1.2
1501863475.6,286047002.1,N,1.2
1501863525.5,286047000.2,E,nan
1501863535.4,286047002.3,N,0.0
1501863555.2,286047000.4,P,1.0
1501863575.1,286047000.2,N,0.9
1501863576.0,286047000.2,N,0.9
1501863595.8,286046999.8,N,0.9
1501863615.6,286047001.8,N,0.9
1501863635.5,286047001.8,N,0.9
1501863655.3,286047001.4,N,0.9
1501863675.2,286047001.9,N,0.9
1501863695.9,286047001.3,N,0.8
1501863715.7,286047001.5,N,0.8
1501863735.6,286047001.6,N,0.8
1501863755.4,286047001.7,N,0.8
1501863775.3,286047001.8,N,0.7
1501863795.1,286047001.4,N,0.7
1501863796.0,286047001.4,N,0.7
1501863815.8,286047001.4,N,0.7
1501863835.7,286047001.5,N,0.7
1501863855.5,286047001.3,N,0.6
1501863875.4,286047001.3,N,0.6
1501863895.2,286047001.4,N,0.6
1501863915.0,286047002.5,Y,0.0
1501863915.9,286047002.5,P,0.6
1501863935.8,286047002.8,P,0.6
1501863955.6,286047002.8,P,0.6
1501863975.5,286047002.8,Y,0.0
1501863995.3,286046998.2,P,2.1
1501864015.1,286046998.2,N,2.0
1501864035.9,286047000.7,N,1.8
1501864055.7,286047001.2,N,1.7
1501864075.6,286047000.9,N,1.5
1501864095.4,286047001.2,N,1.5
1501864115.2,286047001.1,N,1.4
1501864135.1,286046998.5,N,1.5
1501864136.0,286046998.5,N,1.5
1501864155.8,286046998.5,N,1.5
1501864175.7,286046998.2,N,1.5
1501864195.5,286047000.8,N,1.5
1501864215.3,286046998.1,N,1.5
1501864235.2,286047001.1,N,1.5
1501864255.0,286046999.9,N,1.4
1501864255.9,286046999.9,N,1.4
1501864275.7,286047001.0,N,1.4
1501864295.6,286047001.1,N,1.4
1501864315.4,286046998.2,N,1.4
1501864335.3,286046998.5,N,1.4
1501864355.1,286047000.7,N,1.4
1501864356.0,286047000.7,N,1.3
1501864375.8,286047001.0,N,1.3
1501864395.7,286047001.2,N,1.3
1501864415.5,286047000.4,N,1.3
1501864435.4,286047000.6,N,1.3
1501864455.2,286047001.0,N,1.3
1501864475.0,286046999.9,N,1.3
1501864475.9,286046999.9,N,1.2
1501864495.8,286046999.9,N,1.2
1501864515.6,286046999.9,N,1.1
1501864535.5,286047000.1,N,1.1
1501864555.3,286047000.3,N,1.0
1501864575.1,286046999.9,N,1.0
1501864595.9,286047000.4,N,1.0
1501864615.7,286046998.4,N,1.0
1501864635.5,286047000.7,N,1.0
1501864655.4,286047000.4,N,1.0
1501864675.2,286047000.6,N,1.0
1501864695.1,286047001.2,N,0.9
1501864696.0,286047001.2,N,0.9
1501864715.8,286047001.0,N,0.9
1501864735.6,286047000.9,N,0.8
1501864755.5,286046998.6,N,0.8
1501864775.3,286047000.6,N,0.8
1501864795.2,286046999.7,N,0.8
1501864815.9,286047002.8,Y,0.0
1501864835.7,286047001.1,P,0.4
1501864855.6,286047001.0,N,0.4
1501864875.4,286047000.2,N,0.4
1501864895.3,286047000.0,N,0.4
1501864915.1,286047000.3,N,0.4
1501864916.0,286047000.3,N,0.4
1501864935.8,286047001.2,N,0.4
1501864955.7,286047001.1,N,0.5
1501864975.5,286047001.0,N,0.4
1501864995.3,286047000.4,N,0.4
1501865015.2,286047000.6,N,0.4
1501865035.0,286047000.3,N,0.4
1501865035.9,286047000.3,N,0.4
1501865055.8,286047001.1,N,0.4
1501865075.6,286047000.6,N,0.4
1501865095.4,286046999.9,N,0.4
1501865115.3,286047000.2,N,0.4
1501865135.1,286047000.3,N,0.4
1501865155.9,286046999.7,N,0.4
1501865175.7,286046999.9,N,0.4
1501865195.5,286047000.1,N,0.4
1501865215.4,286046999.9,N,0.4
1501865235.2,286047000.5,N,0.4
1501865255.1,286047001.0,N,0.4
1501865256.0,286047001.0,N,0.4
1501865275.8,286047000.4,N,0.4
1501865295.7,286047000.5,N,0.4
1501865315.5,286046998.3,Y,0.0
1501865335.3,286047001.2,P,0.4
1501865355.2,286047000.7,N,0.3
1501865375.0,286046998.2,P,1.2
1501865375.9,286046998.2,N,1.3
1501865395.8,286047000.8,N,1.2
1501865415.6,286047000.7,N,1.2
1501865435.4,286046998.3,N,1.2
1501865455.3,286047000.7,N,1.2
1501865475.1,286047000.4,N,1.2
1501865495.9,286047000.5,N,1.1
1501865515.7,286047000.9,N,1.1
1501865535.5,286047000.9,N,1.1
1501865555.4,286047000.5,N,1.0
1501865575.2,286682706.1,Y,0.0
1501865595.0,286047000.8,P,0.3
1501865596.0,286047000.8,N,0.3
1501865615.8,286047001.0,P,0.3
1501865635.6,286047001.1,Y,0.0
1501865655.5,286046998.2,P,1.2
1501865675.3,286046998.4,N,1.1
1501865695.1,286046998.2,N,1.1
1501865715.9,286682704.3,Y,0.0
1501865735.7,286047000.3,P,0.7
1501865755.6,286047000.4,N,0.7
1501865775.4,286047000.6,N,0.7
1501865795.3,286046999.7,N,0.6
1501865815.1,286047000.4,N,0.6
1501865816.0,286047000.4,N,0.6
1501865835.8,286047000.0,N,0.5
1501865855.7,286047001.0,N,0.6
1501865875.5,286047000.9,N,0.6
1501865895.3,286047000.4,N,0.6
1501865915.2,286047000.0,N,0.5
1501865935.0,286047000.3,N,0.5
1501865935.9,286047000.3,N,0.5
1501865955.8,286046999.9,N,0.5
1501865975.6,286046999.9,N,0.5
1501865995.4,286047000.4,N,0.5
